M I D A S
Marine Information and Data Acquisition System
Tripno 316 of the Zeeleeuw from 2002-03-12 07:00:59 to 2002-03-12 18:10:07
Back to CruiseResearch ActivitiesStationsMapUnderway DataData graphs

EquipmentUnitsComment
TimeDGPSUTC
LatitudeDGPSDM.mWGS84
LongitudeDGPSDM.mWGS84
TemperatureSBE03/SBE38deg celciusITS90
ConductivitySBE21S/mITS90
SalinitySBE21 Practical Salinity Units
ChlorophylAChelsea fluorimeterg/lCalibrated in Aceton
Missing or incorrect values are displayed as -999
Sea surface data collected by the RV Zeeleeuw from 2002-03-12 07:00:59 to 2002-03-12 18:10:07
Time Latitude Longitude Temperature Conductivity Salinity ChlorophylA
2002-03-12 07:02:01 51°13.696 2°55.851 -999 -999 -999  
2002-03-12 07:03:01 51°13.698 2°55.757 -999 -999 -999  
2002-03-12 07:04:00 51°13.706 2°55.719 -999 -999 -999  
2002-03-12 07:05:00 51°13.824 2°55.648 -999 -999 -999  
2002-03-12 07:06:00 51°13.978 2°55.55 -999 -999 -999  
2002-03-12 07:06:59 51°14.09 2°55.469 -999 -999 -999  
2002-03-12 07:08:00 51°14.179 2°55.384 -999 -999 -999  
2002-03-12 07:09:00 51°14.286 2°55.224 -999 -999 -999  
2002-03-12 07:10:00 51°14.345 2°55.078 -999 -999 -999  
2002-03-12 07:10:59 51°14.446 2°54.869 -999 -999 -999  
2002-03-12 07:12:00 51°14.599 2°54.662 -999 -999 -999  
2002-03-12 07:12:59 51°14.75 2°54.459 -999 -999 -999  
2002-03-12 07:14:00 51°14.906 2°54.253 -999 -999 -999  
2002-03-12 07:15:00 51°15.066 2°54.055 -999 -999 -999  
2002-03-12 07:16:00 51°15.237 2°53.843 -999 -999 -999  
2002-03-12 07:17:00 51°15.421 2°53.642 -999 -999 -999  
2002-03-12 07:18:00 51°15.61 2°53.449 -999 -999 -999  
2002-03-12 07:19:00 51°15.796 2°53.25 -999 -999 -999  
2002-03-12 07:20:00 51°15.984 2°53.056 -999 -999 -999  
2002-03-12 07:21:00 51°16.181 2°52.896 -999 -999 -999  
2002-03-12 07:22:00 51°16.385 2°52.766 -999 -999 -999  
2002-03-12 07:23:00 51°16.591 2°52.651 -999 -999 -999  
2002-03-12 07:24:00 51°16.794 2°52.549 -999 -999 -999  
2002-03-12 07:25:00 51°16.998 2°52.461 -999 -999 -999  
2002-03-12 07:26:00 51°17.204 2°52.38 -999 -999 -999  
2002-03-12 07:27:00 51°17.411 2°52.307 -999 -999 -999  
2002-03-12 07:28:00 51°17.617 2°52.235 -999 -999 -999  
2002-03-12 07:29:00 51°17.825 2°52.2 -999 -999 -999  
2002-03-12 07:30:00 51°18.029 2°52.244 -999 -999 -999  
2002-03-12 07:31:00 51°18.227 2°52.332 -999 -999 -999  
2002-03-12 07:32:00 51°18.338 2°52.596 -999 -999 -999  
2002-03-12 07:32:59 51°18.456 2°52.856 -999 -999 -999  
2002-03-12 07:34:00 51°18.568 2°53.136 -999 -999 -999  
2002-03-12 07:35:00 51°18.651 2°53.437 -999 -999 -999  
2002-03-12 07:36:00 51°18.741 2°53.731 -999 -999 -999  
2002-03-12 07:37:00 51°18.831 2°54.026 -999 -999 -999  
2002-03-12 07:38:00 51°18.92 2°54.32 -999 -999 -999  
2002-03-12 07:39:00 51°19.011 2°54.614 -999 -999 -999  
2002-03-12 07:39:59 51°19.1 2°54.902 -999 -999 -999  
2002-03-12 07:40:59 51°19.19 2°55.194 -999 -999 -999  
2002-03-12 07:42:00 51°19.281 2°55.492 -999 -999 -999  
2002-03-12 07:43:00 51°19.372 2°55.783 -999 -999 -999  
2002-03-12 07:43:59 51°19.461 2°56.069 -999 -999 -999  
2002-03-12 07:45:00 51°19.554 2°56.365 -999 -999 -999  
2002-03-12 07:46:00 51°19.642 2°56.659 -999 -999 -999  
2002-03-12 07:47:00 51°19.73 2°56.954 -999 -999 -999  
2002-03-12 07:48:00 51°19.819 2°57.249 -999 -999 -999  
2002-03-12 07:49:00 51°19.909 2°57.543 -999 -999 -999  
2002-03-12 07:50:00 51°20 2°57.836 -999 -999 -999  
2002-03-12 07:51:00 51°20.09 2°58.13 -999 -999 -999  
2002-03-12 07:52:00 51°20.18 2°58.425 -999 -999 -999  
2002-03-12 07:52:59 51°20.269 2°58.713 -999 -999 -999  
2002-03-12 07:54:00 51°20.361 2°59.01 -999 -999 -999  
2002-03-12 07:55:00 51°20.453 2°59.305 -999 -999 -999  
2002-03-12 07:56:00 51°20.539 2°59.605 -999 -999 -999  
2002-03-12 07:57:00 51°20.626 2°59.903 -999 -999 -999  
2002-03-12 07:58:00 51°20.711 3°0.207 -999 -999 -999  
2002-03-12 07:59:00 51°20.795 3°0.511 -999 -999 -999  
2002-03-12 08:00:00 51°20.878 3°0.815 -999 -999 -999  
2002-03-12 08:01:00 51°20.959 3°1.12 -999 -999 -999  
2002-03-12 08:02:00 51°21.041 3°1.425 -999 -999 -999  
2002-03-12 08:03:00 51°21.124 3°1.732 -999 -999 -999  
2002-03-12 08:04:00 51°21.205 3°2.037 -999 -999 -999  
2002-03-12 08:05:00 51°21.287 3°2.343 -999 -999 -999  
2002-03-12 08:06:00 51°21.369 3°2.648 -999 -999 -999  
2002-03-12 08:06:59 51°21.449 3°2.946 -999 -999 -999  
2002-03-12 08:08:01 51°21.534 3°3.257 -999 -999 -999  
2002-03-12 08:09:00 51°21.615 3°3.551 -999 -999 -999  
2002-03-12 08:10:00 51°21.699 3°3.851 -999 -999 -999  
2002-03-12 08:11:00 51°21.783 3°4.15 -999 -999 -999  
2002-03-12 08:12:00 51°21.867 3°4.445 -999 -999 -999  
2002-03-12 08:13:00 51°21.93 3°4.754 -999 -999 -999  
2002-03-12 08:14:00 51°21.982 3°5.069 -999 -999 -999  
2002-03-12 08:15:00 51°22.037 3°5.385 -999 -999 -999  
2002-03-12 08:15:59 51°22.089 3°5.701 -999 -999 -999  
2002-03-12 08:17:00 51°22.146 3°6.026 -999 -999 -999  
2002-03-12 08:18:00 51°22.201 3°6.346 -999 -999 -999  
2002-03-12 08:19:00 51°22.258 3°6.666 -999 -999 -999  
2002-03-12 08:20:00 51°22.314 3°6.99 -999 -999 -999  
2002-03-12 08:21:00 51°22.37 3°7.317 -999 -999 -999  
2002-03-12 08:22:00 51°22.423 3°7.645 -999 -999 -999  
2002-03-12 08:22:59 51°22.476 3°7.969 -999 -999 -999  
2002-03-12 08:24:00 51°22.531 3°8.305 -999 -999 -999  
2002-03-12 08:25:00 51°22.586 3°8.635 -999 -999 -999  
2002-03-12 08:26:01 51°22.633 3°8.946 -999 -999 -999  
2002-03-12 08:27:00 51°22.674 3°9.194 -999 -999 -999  
2002-03-12 08:28:00 51°22.689 3°9.36 -999 -999 -999  
2002-03-12 08:28:59 51°22.719 3°9.444 -999 -999 -999  
2002-03-12 08:30:00 51°22.726 3°9.47 -999 -999 -999  
2002-03-12 08:31:00 51°22.726 3°9.471 -999 -999 -999  
2002-03-12 08:32:00 51°22.727 3°9.473 -999 -999 -999  
2002-03-12 08:33:00 51°22.729 3°9.473 -999 -999 -999  
2002-03-12 08:34:00 51°22.73 3°9.475 -999 -999 -999  
2002-03-12 08:35:00 51°22.731 3°9.477 -999 -999 -999  
2002-03-12 08:35:59 51°22.733 3°9.48 -999 -999 -999  
2002-03-12 08:37:00 51°22.734 3°9.483 -999 -999 -999  
2002-03-12 08:38:00 51°22.736 3°9.484 -999 -999 -999  
2002-03-12 08:39:00 51°22.737 3°9.488 -999 -999 -999  
2002-03-12 08:40:00 51°22.739 3°9.491 -999 -999 -999  
2002-03-12 08:40:59 51°22.74 3°9.495 -999 -999 -999  
2002-03-12 08:42:00 51°22.74 3°9.497 -999 -999 -999  
2002-03-12 08:43:01 51°22.74 3°9.495 -999 -999 -999  
2002-03-12 08:44:00 51°22.738 3°9.492 -999 -999 -999  
2002-03-12 08:45:00 51°22.736 3°9.488 -999 -999 -999  
2002-03-12 08:46:00 51°22.734 3°9.483 -999 -999 -999  
2002-03-12 08:47:00 51°22.731 3°9.476 -999 -999 -999  
2002-03-12 08:48:00 51°22.729 3°9.469 -999 -999 -999  
2002-03-12 08:49:00 51°22.725 3°9.464 -999 -999 -999  
2002-03-12 08:50:01 51°22.722 3°9.459 -999 -999 -999  
2002-03-12 08:51:00 51°22.72 3°9.452 -999 -999 -999  
2002-03-12 08:52:00 51°22.717 3°9.446 -999 -999 -999  
2002-03-12 08:53:00 51°22.714 3°9.441 -999 -999 -999  
2002-03-12 08:54:00 51°22.713 3°9.438 -999 -999 -999  
2002-03-12 08:55:00 51°22.712 3°9.438 -999 -999 -999  
2002-03-12 08:56:00 51°22.709 3°9.443 -999 -999 -999  
2002-03-12 08:57:00 51°22.705 3°9.449 -999 -999 -999  
2002-03-12 08:58:00 51°22.699 3°9.456 -999 -999 -999  
2002-03-12 08:59:00 51°22.691 3°9.464 -999 -999 -999  
2002-03-12 09:00:00 51°22.682 3°9.472 -999 -999 -999  
2002-03-12 09:01:01 51°22.674 3°9.476 -999 -999 -999  
2002-03-12 09:02:00 51°22.667 3°9.479 -999 -999 -999  
2002-03-12 09:03:00 51°22.657 3°9.487 -999 -999 -999  
2002-03-12 09:04:00 51°22.649 3°9.497 -999 -999 -999  
2002-03-12 09:05:00 51°22.639 3°9.506 -999 -999 -999  
2002-03-12 09:06:00 51°22.631 3°9.516 -999 -999 -999  
2002-03-12 09:07:00 51°22.621 3°9.524 -999 -999 -999  
2002-03-12 09:08:01 51°22.612 3°9.531 -999 -999 -999  
2002-03-12 09:09:00 51°22.604 3°9.536 -999 -999 -999  
2002-03-12 09:10:00 51°22.596 3°9.54 -999 -999 -999  
2002-03-12 09:11:00 51°22.588 3°9.543 -999 -999 -999  
2002-03-12 09:12:01 51°22.608 3°9.51 -999 -999 -999  
2002-03-12 09:13:00 51°22.642 3°9.455 -999 -999 -999  
2002-03-12 09:14:00 51°22.666 3°9.408 -999 -999 -999  
2002-03-12 09:14:59 51°22.668 3°9.393 -999 -999 -999  
2002-03-12 09:16:00 51°22.667 3°9.386 -999 -999 -999  
2002-03-12 09:17:00 51°22.661 3°9.393 -999 -999 -999  
2002-03-12 09:18:00 51°22.655 3°9.405 -999 -999 -999  
2002-03-12 09:19:00 51°22.652 3°9.426 -999 -999 -999  
2002-03-12 09:20:00 51°22.655 3°9.448 -999 -999 -999  
2002-03-12 09:20:59 51°22.661 3°9.471 -999 -999 -999  
2002-03-12 09:21:59 51°22.668 3°9.492 -999 -999 -999  
2002-03-12 09:22:59 51°22.675 3°9.511 -999 -999 -999  
2002-03-12 09:24:00 51°22.751 3°9.495 -999 -999 -999  
2002-03-12 09:25:00 51°22.893 3°9.257 -999 -999 -999  
2002-03-12 09:26:00 51°23.009 3°8.952 -999 -999 -999  
2002-03-12 09:27:00 51°23.108 3°8.621 -999 -999 -999  
2002-03-12 09:28:00 51°23.202 3°8.281 -999 -999 -999  
2002-03-12 09:29:00 51°23.302 3°7.944 -999 -999 -999  
2002-03-12 09:30:00 51°23.414 3°7.618 -999 -999 -999  
2002-03-12 09:31:00 51°23.572 3°7.359 -999 -999 -999  
2002-03-12 09:32:00 51°23.787 3°7.248 -999 -999 -999  
2002-03-12 09:33:00 51°23.982 3°7.14 -999 -999 -999  
2002-03-12 09:34:00 51°24.099 3°7.077 -999 -999 -999  
2002-03-12 09:35:00 51°24.157 3°7.03 -999 -999 -999  
2002-03-12 09:36:00 51°24.174 3°7.023 -999 -999 -999  
2002-03-12 09:37:00 51°24.188 3°7.018 -999 -999 -999  
2002-03-12 09:38:01 51°24.148 3°7.038 -999 -999 -999  
2002-03-12 09:39:00 51°24.096 3°7.075 -999 -999 -999  
2002-03-12 09:40:00 51°24.096 3°7.079 -999 -999 -999  
2002-03-12 09:41:00 51°24.102 3°7.08 -999 -999 -999  
2002-03-12 09:42:00 51°24.11 3°7.082 -999 -999 -999  
2002-03-12 09:43:00 51°24.118 3°7.083 -999 -999 -999  
2002-03-12 09:44:00 51°24.126 3°7.086 -999 -999 -999  
2002-03-12 09:45:00 51°24.134 3°7.088 -999 -999 -999  
2002-03-12 09:46:00 51°24.142 3°7.091 -999 -999 -999  
2002-03-12 09:47:00 51°24.148 3°7.092 -999 -999 -999  
2002-03-12 09:48:00 51°24.155 3°7.09 -999 -999 -999  
2002-03-12 09:49:00 51°24.161 3°7.083 -999 -999 -999  
2002-03-12 09:50:00 51°24.166 3°7.068 -999 -999 -999  
2002-03-12 09:51:00 51°24.172 3°7.047 -999 -999 -999  
2002-03-12 09:52:00 51°24.177 3°7.022 -999 -999 -999  
2002-03-12 09:53:01 51°24.18 3°7.002 -999 -999 -999  
2002-03-12 09:54:00 51°24.183 3°6.987 -999 -999 -999  
2002-03-12 09:55:00 51°24.188 3°6.977 -999 -999 -999  
2002-03-12 09:56:00 51°24.193 3°6.97 -999 -999 -999  
2002-03-12 09:57:00 51°24.199 3°6.965 -999 -999 -999  
2002-03-12 09:58:00 51°24.204 3°6.963 -999 -999 -999  
2002-03-12 09:59:00 51°24.21 3°6.963 -999 -999 -999  
2002-03-12 10:00:01 51°24.215 3°6.965 -999 -999 -999  
2002-03-12 10:01:00 51°24.222 3°6.968 -999 -999 -999  
2002-03-12 10:02:00 51°24.228 3°6.974 -999 -999 -999  
2002-03-12 10:03:00 51°24.234 3°6.981 -999 -999 -999  
2002-03-12 10:03:59 51°24.24 3°6.989 -999 -999 -999  
2002-03-12 10:05:00 51°24.245 3°6.997 -999 -999 -999  
2002-03-12 10:06:00 51°24.249 3°7.006 -999 -999 -999  
2002-03-12 10:07:00 51°24.253 3°7.014 -999 -999 -999  
2002-03-12 10:07:59 51°24.257 3°7.024 -999 -999 -999  
2002-03-12 10:09:00 51°24.261 3°7.034 -999 -999 -999  
2002-03-12 10:10:00 51°24.265 3°7.044 -999 -999 -999  
2002-03-12 10:11:00 51°24.269 3°7.055 -999 -999 -999  
2002-03-12 10:12:00 51°24.273 3°7.067 -999 -999 -999  
2002-03-12 10:13:01 51°24.274 3°7.128 -999 -999 -999  
2002-03-12 10:13:59 51°24.278 3°7.066 -999 -999 -999  
2002-03-12 10:15:00 51°24.284 3°6.759 -999 -999 -999  
2002-03-12 10:16:00 51°24.299 3°6.444 -999 -999 -999  
2002-03-12 10:17:01 51°24.324 3°6.127 -999 -999 -999  
2002-03-12 10:18:01 51°24.393 3°5.807 -999 -999 -999  
2002-03-12 10:19:00 51°24.473 3°5.5 -999 -999 -999  
2002-03-12 10:20:00 51°24.553 3°5.184 -999 -999 -999  
2002-03-12 10:21:01 51°24.623 3°4.857 -999 -999 -999  
2002-03-12 10:21:59 51°24.683 3°4.54 -999 -999 -999  
2002-03-12 10:23:00 51°24.734 3°4.2 -999 -999 -999  
2002-03-12 10:24:01 51°24.786 3°3.862 -999 -999 -999  
2002-03-12 10:25:01 51°24.827 3°3.529 -999 -999 -999  
2002-03-12 10:26:00 51°24.775 3°3.211 -999 -999 -999  
2002-03-12 10:27:00 51°24.645 3°2.929 -999 -999 -999  
2002-03-12 10:28:01 51°24.538 3°2.619 -999 -999 -999  
2002-03-12 10:29:00 51°24.419 3°2.334 -999 -999 -999  
2002-03-12 10:30:00 51°24.292 3°2.053 -999 -999 -999  
2002-03-12 10:31:00 51°24.164 3°1.774 -999 -999 -999  
2002-03-12 10:32:00 51°24.035 3°1.502 -999 -999 -999  
2002-03-12 10:33:00 51°23.905 3°1.23 -999 -999 -999  
2002-03-12 10:34:00 51°23.766 3°0.975 -999 -999 -999  
2002-03-12 10:35:00 51°23.621 3°0.73 -999 -999 -999  
2002-03-12 10:35:59 51°23.479 3°0.488 -999 -999 -999  
2002-03-12 10:37:00 51°23.333 3°0.277 -999 -999 -999  
2002-03-12 10:38:00 51°23.234 3°0.141 -999 -999 -999  
2002-03-12 10:39:00 51°23.222 3°0.039 -999 -999 -999  
2002-03-12 10:39:59 51°23.241 2°59.984 -999 -999 -999  
2002-03-12 10:41:00 51°23.253 2°59.978 -999 -999 -999  
2002-03-12 10:42:00 51°23.262 2°59.971 -999 -999 -999  
2002-03-12 10:43:00 51°23.268 2°59.966 -999 -999 -999  
2002-03-12 10:44:00 51°23.271 2°59.961 -999 -999 -999  
2002-03-12 10:45:00 51°23.274 2°59.956 -999 -999 -999  
2002-03-12 10:45:59 51°23.278 2°59.947 -999 -999 -999  
2002-03-12 10:47:01 51°23.285 2°59.937 -999 -999 -999  
2002-03-12 10:48:00 51°23.29 2°59.929 -999 -999 -999  
2002-03-12 10:49:00 51°23.294 2°59.924 -999 -999 -999  
2002-03-12 10:50:01 51°23.294 2°59.924 -999 -999 -999  
2002-03-12 10:51:01 51°23.292 2°59.929 -999 -999 -999  
2002-03-12 10:52:00 51°23.289 2°59.936 -999 -999 -999  
2002-03-12 10:53:01 51°23.284 2°59.943 -999 -999 -999  
2002-03-12 10:54:00 51°23.28 2°59.949 -999 -999 -999  
2002-03-12 10:55:01 51°23.277 2°59.952 -999 -999 -999  
2002-03-12 10:56:00 51°23.276 2°59.954 -999 -999 -999  
2002-03-12 10:57:01 51°23.275 2°59.955 -999 -999 -999  
2002-03-12 10:58:01 51°23.278 2°59.95 -999 -999 -999  
2002-03-12 10:59:00 51°23.281 2°59.945 -999 -999 -999  
2002-03-12 11:00:00 51°23.286 2°59.94 -999 -999 -999  
2002-03-12 11:01:00 51°23.293 2°59.934 -999 -999 -999  
2002-03-12 11:02:00 51°23.302 2°59.928 -999 -999 -999  
2002-03-12 11:03:00 51°23.315 2°59.92 -999 -999 -999  
2002-03-12 11:04:01 51°23.328 2°59.913 -999 -999 -999  
2002-03-12 11:05:01 51°23.34 2°59.909 -999 -999 -999  
2002-03-12 11:06:00 51°23.351 2°59.906 -999 -999 -999  
2002-03-12 11:06:59 51°23.363 2°59.909 -999 -999 -999  
2002-03-12 11:08:01 51°23.381 2°59.906 -999 -999 -999  
2002-03-12 11:09:01 51°23.473 2°59.925 -999 -999 -999  
2002-03-12 11:10:01 51°23.463 3°0.106 -999 -999 -999  
2002-03-12 11:11:00 51°23.385 3°0.071 -999 -999 -999  
2002-03-12 11:12:00 51°23.297 3°0.045 -999 -999 -999  
2002-03-12 11:13:00 51°23.252 3°0.023 -999 -999 -999  
2002-03-12 11:14:00 51°23.258 3°0.027 -999 -999 -999  
2002-03-12 11:15:00 51°23.272 3°0.033 -999 -999 -999  
2002-03-12 11:16:01 51°23.286 3°0.044 -999 -999 -999  
2002-03-12 11:17:00 51°23.3 3°0.058 -999 -999 -999  
2002-03-12 11:18:00 51°23.314 3°0.076 -999 -999 -999  
2002-03-12 11:19:00 51°23.328 3°0.095 -999 -999 -999  
2002-03-12 11:20:01 51°23.34 3°0.114 -999 -999 -999  
2002-03-12 11:21:01 51°23.349 3°0.124 -999 -999 -999  
2002-03-12 11:21:59 51°23.352 3°0.126 -999 -999 -999  
2002-03-12 11:23:01 51°23.356 3°0.133 -999 -999 -999  
2002-03-12 11:23:59 51°23.361 3°0.143 -999 -999 -999  
2002-03-12 11:25:01 51°23.422 3°0.054 -999 -999 -999  
2002-03-12 11:26:01 51°23.567 3°0.224 -999 -999 -999  
2002-03-12 11:27:00 51°23.692 3°0.559 -999 -999 -999  
2002-03-12 11:28:00 51°23.815 3°0.918 -999 -999 -999  
2002-03-12 11:28:59 51°23.933 3°1.276 -999 -999 -999  
2002-03-12 11:30:00 51°24.055 3°1.647 -999 -999 -999  
2002-03-12 11:31:01 51°24.179 3°2.015 -999 -999 -999  
2002-03-12 11:32:00 51°24.312 3°2.359 -999 -999 -999  
2002-03-12 11:33:01 51°24.449 3°2.716 -999 -999 -999  
2002-03-12 11:34:01 51°24.59 3°3.059 -999 -999 -999  
2002-03-12 11:35:00 51°24.749 3°3.368 -999 -999 -999  
2002-03-12 11:36:00 51°24.93 3°3.65 -999 -999 -999  
2002-03-12 11:37:01 51°25.117 3°3.935 -999 -999 -999  
2002-03-12 11:38:00 51°25.296 3°4.199 -999 -999 -999  
2002-03-12 11:39:00 51°25.48 3°4.459 -999 -999 -999  
2002-03-12 11:40:00 51°25.664 3°4.724 -999 -999 -999  
2002-03-12 11:41:00 51°25.854 3°4.975 -999 -999 -999  
2002-03-12 11:42:00 51°26.047 3°5.215 -999 -999 -999  
2002-03-12 11:43:01 51°26.24 3°5.463 -999 -999 -999  
2002-03-12 11:44:00 51°26.426 3°5.705 -999 -999 -999  
2002-03-12 11:45:00 51°26.619 3°5.944 -999 -999 -999  
2002-03-12 11:46:01 51°26.817 3°6.179 -999 -999 -999  
2002-03-12 11:47:00 51°27.027 3°6.355 -999 -999 -999  
2002-03-12 11:48:01 51°27.243 3°6.538 -999 -999 -999  
2002-03-12 11:49:00 51°27.456 3°6.703 -999 -999 -999  
2002-03-12 11:50:00 51°27.672 3°6.872 -999 -999 -999  
2002-03-12 11:51:00 51°27.888 3°7.041 -999 -999 -999  
2002-03-12 11:52:00 51°28.101 3°7.221 -999 -999 -999  
2002-03-12 11:53:01 51°28.302 3°7.441 -999 -999 -999  
2002-03-12 11:54:01 51°28.42 3°7.608 -999 -999 -999  
2002-03-12 11:55:00 51°28.493 3°7.728 -999 -999 -999  
2002-03-12 11:56:00 51°28.557 3°7.824 -999 -999 -999  
2002-03-12 11:57:01 51°28.62 3°7.904 -999 -999 -999  
2002-03-12 11:58:00 51°28.68 3°7.971 -999 -999 -999  
2002-03-12 11:59:01 51°28.74 3°8.04 -999 -999 -999  
2002-03-12 12:00:01 51°28.81 3°8.111 -999 -999 -999  
2002-03-12 12:01:00 51°28.978 3°8.099 -999 -999 -999  
2002-03-12 12:01:59 51°29.027 3°7.987 -999 -999 -999  
2002-03-12 12:03:00 51°29.023 3°7.972 -999 -999 -999  
2002-03-12 12:04:01 51°28.996 3°7.963 -999 -999 -999  
2002-03-12 12:05:00 51°28.963 3°7.948 -999 -999 -999  
2002-03-12 12:06:00 51°28.958 3°7.946 -999 -999 -999  
2002-03-12 12:07:00 51°28.963 3°7.948 -999 -999 -999  
2002-03-12 12:08:01 51°28.976 3°7.947 -999 -999 -999  
2002-03-12 12:09:00 51°28.995 3°7.949 -999 -999 -999  
2002-03-12 12:09:59 51°29.015 3°7.954 -999 -999 -999  
2002-03-12 12:11:01 51°29.031 3°7.957 -999 -999 -999  
2002-03-12 12:12:00 51°29.041 3°7.956 -999 -999 -999  
2002-03-12 12:13:00 51°29.042 3°7.958 -999 -999 -999  
2002-03-12 12:14:01 51°29.037 3°7.97 -999 -999 -999  
2002-03-12 12:15:01 51°29.029 3°7.993 -999 -999 -999  
2002-03-12 12:16:01 51°29.02 3°8.009 -999 -999 -999  
2002-03-12 12:17:01 51°29.014 3°8.01 -999 -999 -999  
2002-03-12 12:18:01 51°29.007 3°8.003 -999 -999 -999  
2002-03-12 12:19:00 51°28.995 3°7.997 -999 -999 -999  
2002-03-12 12:20:00 51°28.986 3°7.984 -999 -999 -999  
2002-03-12 12:21:01 51°28.986 3°7.961 -999 -999 -999  
2002-03-12 12:22:01 51°28.989 3°7.933 -999 -999 -999  
2002-03-12 12:23:00 51°28.992 3°7.908 -999 -999 -999  
2002-03-12 12:24:01 51°28.991 3°7.9 -999 -999 -999  
2002-03-12 12:25:01 51°28.986 3°7.907 -999 -999 -999  
2002-03-12 12:26:00 51°28.98 3°7.922 -999 -999 -999  
2002-03-12 12:27:00 51°28.975 3°7.934 -999 -999 -999  
2002-03-12 12:28:01 51°28.977 3°7.936 -999 -999 -999  
2002-03-12 12:29:01 51°28.984 3°7.932 -999 -999 -999  
2002-03-12 12:30:01 51°28.992 3°7.927 -999 -999 -999  
2002-03-12 12:30:59 51°29.001 3°7.927 -999 -999 -999  
2002-03-12 12:32:00 51°29.009 3°7.929 -999 -999 -999  
2002-03-12 12:33:01 51°29.019 3°7.932 -999 -999 -999  
2002-03-12 12:34:01 51°29.029 3°7.934 -999 -999 -999  
2002-03-12 12:35:01 51°29.035 3°7.935 -999 -999 -999  
2002-03-12 12:36:01 51°29.042 3°7.939 -999 -999 -999  
2002-03-12 12:36:59 51°29.049 3°7.943 -999 -999 -999  
2002-03-12 12:38:00 51°29.058 3°7.948 -999 -999 -999  
2002-03-12 12:39:01 51°29.064 3°7.95 -999 -999 -999  
2002-03-12 12:40:01 51°29.061 3°7.954 -999 -999 -999  
2002-03-12 12:41:01 51°29.058 3°7.963 -999 -999 -999  
2002-03-12 12:42:00 51°29.053 3°7.974 -999 -999 -999  
2002-03-12 12:42:59 51°29.049 3°7.989 -999 -999 -999  
2002-03-12 12:44:01 51°29.042 3°8.007 -999 -999 -999  
2002-03-12 12:45:01 51°29.035 3°8.028 -999 -999 -999  
2002-03-12 12:46:01 51°29.026 3°8.051 -999 -999 -999  
2002-03-12 12:47:00 51°28.982 3°7.982 -999 -999 -999  
2002-03-12 12:47:59 51°28.938 3°7.698 -999 -999 -999  
2002-03-12 12:49:00 51°28.861 3°7.389 -999 -999 -999  
2002-03-12 12:50:01 51°28.837 3°7.053 -999 -999 -999  
2002-03-12 12:51:01 51°28.814 3°6.722 -999 -999 -999  
2002-03-12 12:52:00 51°28.793 3°6.397 -999 -999 -999  
2002-03-12 12:52:59 51°28.771 3°6.072 -999 -999 -999  
2002-03-12 12:54:01 51°28.748 3°5.729 -999 -999 -999  
2002-03-12 12:55:01 51°28.73 3°5.397 -999 -999 -999  
2002-03-12 12:56:01 51°28.713 3°5.066 -999 -999 -999  
2002-03-12 12:57:01 51°28.701 3°4.736 -999 -999 -999  
2002-03-12 12:58:00 51°28.693 3°4.411 -999 -999 -999  
2002-03-12 12:59:01 51°28.687 3°4.077 -999 -999 -999  
2002-03-12 13:00:01 51°28.682 3°3.804 -999 -999 -999  
2002-03-12 13:01:01 51°28.666 3°3.702 -999 -999 -999  
2002-03-12 13:02:01 51°28.676 3°3.676 -999 -999 -999  
2002-03-12 13:03:00 51°28.691 3°3.663 -999 -999 -999  
2002-03-12 13:04:01 51°28.709 3°3.659 -999 -999 -999  
2002-03-12 13:04:59 51°28.726 3°3.659 -999 -999 -999  
2002-03-12 13:06:00 51°28.738 3°3.659 -999 -999 -999  
2002-03-12 13:07:00 51°28.743 3°3.66 -999 -999 -999  
2002-03-12 13:08:01 51°28.742 3°3.669 -999 -999 -999  
2002-03-12 13:09:00 51°28.735 3°3.688 -999 -999 -999  
2002-03-12 13:10:00 51°28.727 3°3.707 -999 -999 -999  
2002-03-12 13:11:00 51°28.718 3°3.729 -999 -999 -999  
2002-03-12 13:12:01 51°28.707 3°3.758 -999 -999 -999  
2002-03-12 13:13:00 51°28.7 3°3.775 -999 -999 -999  
2002-03-12 13:14:01 51°28.694 3°3.782 -999 -999 -999  
2002-03-12 13:15:01 51°28.687 3°3.785 -999 -999 -999  
2002-03-12 13:16:01 51°28.681 3°3.792 -999 -999 -999  
2002-03-12 13:17:01 51°28.68 3°3.807 -999 -999 -999  
2002-03-12 13:18:01 51°28.681 3°3.828 -999 -999 -999  
2002-03-12 13:19:00 51°28.684 3°3.852 -999 -999 -999  
2002-03-12 13:20:01 51°28.687 3°3.873 -999 -999 -999  
2002-03-12 13:21:01 51°28.691 3°3.891 -999 -999 -999  
2002-03-12 13:22:01 51°28.696 3°3.903 -999 -999 -999  
2002-03-12 13:23:01 51°28.704 3°3.91 -999 -999 -999  
2002-03-12 13:24:00 51°28.714 3°3.918 -999 -999 -999  
2002-03-12 13:25:00 51°28.725 3°3.927 -999 -999 -999  
2002-03-12 13:26:00 51°28.735 3°3.933 -999 -999 -999  
2002-03-12 13:27:00 51°28.743 3°3.933 -999 -999 -999  
2002-03-12 13:28:00 51°28.749 3°3.929 -999 -999 -999  
2002-03-12 13:29:00 51°28.753 3°3.919 -999 -999 -999  
2002-03-12 13:30:00 51°28.755 3°3.915 -999 -999 -999  
2002-03-12 13:31:00 51°28.76 3°3.921 -999 -999 -999  
2002-03-12 13:32:00 51°28.764 3°3.93 -999 -999 -999  
2002-03-12 13:33:00 51°28.767 3°3.94 -999 -999 -999  
2002-03-12 13:34:01 51°28.771 3°3.949 -999 -999 -999  
2002-03-12 13:35:00 51°28.777 3°3.956 -999 -999 -999  
2002-03-12 13:36:00 51°28.784 3°3.961 -999 -999 -999  
2002-03-12 13:37:01 51°28.794 3°3.964 -999 -999 -999  
2002-03-12 13:38:01 51°28.806 3°3.965 -999 -999 -999  
2002-03-12 13:38:59 51°28.819 3°3.964 -999 -999 -999  
2002-03-12 13:40:00 51°28.834 3°3.963 -999 -999 -999  
2002-03-12 13:41:01 51°28.848 3°3.964 -999 -999 -999  
2002-03-12 13:42:01 51°28.861 3°3.964 -999 -999 -999  
2002-03-12 13:43:01 51°28.872 3°3.965 -999 -999 -999  
2002-03-12 13:44:01 51°28.881 3°3.968 -999 -999 -999  
2002-03-12 13:45:01 51°28.888 3°3.972 -999 -999 -999  
2002-03-12 13:46:00 51°28.895 3°3.975 -999 -999 -999  
2002-03-12 13:47:01 51°28.842 3°3.887 -999 -999 -999  
2002-03-12 13:48:00 51°28.715 3°3.675 -999 -999 -999  
2002-03-12 13:49:00 51°28.578 3°3.448 -999 -999 -999  
2002-03-12 13:50:01 51°28.438 3°3.216 -999 -999 -999  
2002-03-12 13:51:00 51°28.304 3°2.989 -999 -999 -999  
2002-03-12 13:52:01 51°28.167 3°2.748 -999 -999 -999  
2002-03-12 13:53:01 51°28.033 3°2.514 -999 -999 -999  
2002-03-12 13:54:01 51°27.898 3°2.278 -999 -999 -999  
2002-03-12 13:55:01 51°27.763 3°2.041 -999 -999 -999  
2002-03-12 13:56:01 51°27.63 3°1.803 -999 -999 -999  
2002-03-12 13:57:01 51°27.495 3°1.568 -999 -999 -999  
2002-03-12 13:58:01 51°27.36 3°1.337 -999 -999 -999  
2002-03-12 13:59:01 51°27.228 3°1.106 -999 -999 -999  
2002-03-12 14:00:01 51°27.094 3°0.876 -999 -999 -999  
2002-03-12 14:01:01 51°26.961 3°0.642 -999 -999 -999  
2002-03-12 14:02:01 51°26.826 3°0.412 -999 -999 -999  
2002-03-12 14:03:01 51°26.693 3°0.18 -999 -999 -999  
2002-03-12 14:04:01 51°26.559 2°59.946 -999 -999 -999  
2002-03-12 14:05:00 51°26.428 2°59.715 -999 -999 -999  
2002-03-12 14:06:01 51°26.291 2°59.478 -999 -999 -999  
2002-03-12 14:07:01 51°26.157 2°59.243 -999 -999 -999  
2002-03-12 14:08:01 51°26.021 2°59.007 -999 -999 -999  
2002-03-12 14:09:00 51°25.887 2°58.771 -999 -999 -999  
2002-03-12 14:10:01 51°25.746 2°58.525 -999 -999 -999  
2002-03-12 14:11:01 51°25.607 2°58.28 -999 -999 -999  
2002-03-12 14:12:01 51°25.466 2°58.031 -999 -999 -999  
2002-03-12 14:13:01 51°25.323 2°57.781 -999 -999 -999  
2002-03-12 14:14:01 51°25.179 2°57.531 -999 -999 -999  
2002-03-12 14:15:01 51°25.032 2°57.287 -999 -999 -999  
2002-03-12 14:16:01 51°24.892 2°57.034 -999 -999 -999  
2002-03-12 14:17:01 51°24.757 2°56.774 -999 -999 -999  
2002-03-12 14:18:01 51°24.62 2°56.514 -999 -999 -999  
2002-03-12 14:19:01 51°24.484 2°56.255 -999 -999 -999  
2002-03-12 14:20:01 51°24.347 2°55.996 -999 -999 -999  
2002-03-12 14:21:01 51°24.211 2°55.735 -999 -999 -999  
2002-03-12 14:22:01 51°24.076 2°55.475 -999 -999 -999  
2002-03-12 14:23:01 51°23.941 2°55.215 -999 -999 -999  
2002-03-12 14:24:01 51°23.805 2°54.953 -999 -999 -999  
2002-03-12 14:25:00 51°23.672 2°54.696 -999 -999 -999  
2002-03-12 14:26:01 51°23.534 2°54.435 -999 -999 -999  
2002-03-12 14:27:01 51°23.401 2°54.176 -999 -999 -999  
2002-03-12 14:28:01 51°23.264 2°53.921 -999 -999 -999  
2002-03-12 14:29:01 51°23.065 2°53.865 -999 -999 -999  
2002-03-12 14:30:01 51°22.852 2°53.87 -999 -999 -999  
2002-03-12 14:31:01 51°22.638 2°53.872 -999 -999 -999  
2002-03-12 14:32:01 51°22.424 2°53.869 -999 -999 -999  
2002-03-12 14:33:01 51°22.207 2°53.863 -999 -999 -999  
2002-03-12 14:34:01 51°21.989 2°53.856 -999 -999 -999  
2002-03-12 14:35:01 51°21.776 2°53.792 -999 -999 -999  
2002-03-12 14:36:01 51°21.567 2°53.696 -999 -999 -999  
2002-03-12 14:37:01 51°21.372 2°53.544 -999 -999 -999  
2002-03-12 14:38:01 51°21.19 2°53.355 -999 -999 -999  
2002-03-12 14:39:01 51°21.078 2°53.061 -999 -999 -999  
2002-03-12 14:40:01 51°21.002 2°52.731 -999 -999 -999  
2002-03-12 14:41:01 51°20.913 2°52.407 -999 -999 -999  
2002-03-12 14:42:01 51°20.823 2°52.082 -999 -999 -999  
2002-03-12 14:43:01 51°20.737 2°51.755 -999 -999 -999  
2002-03-12 14:44:01 51°20.661 2°51.421 -999 -999 -999  
2002-03-12 14:45:01 51°20.583 2°51.088 -999 -999 -999  
2002-03-12 14:46:01 51°20.505 2°50.755 -999 -999 -999  
2002-03-12 14:47:01 51°20.428 2°50.423 -999 -999 -999  
2002-03-12 14:48:01 51°20.351 2°50.09 -999 -999 -999  
2002-03-12 14:49:01 51°20.274 2°49.758 -999 -999 -999  
2002-03-12 14:50:01 51°20.199 2°49.428 -999 -999 -999  
2002-03-12 14:51:01 51°20.131 2°49.093 -999 -999 -999  
2002-03-12 14:52:01 51°20.063 2°48.759 -999 -999 -999  
2002-03-12 14:53:01 51°19.994 2°48.426 -999 -999 -999  
2002-03-12 14:54:01 51°19.945 2°48.084 -999 -999 -999  
2002-03-12 14:55:01 51°19.921 2°47.81 -999 -999 -999  
2002-03-12 14:56:01 51°19.924 2°47.71 -999 -999 -999  
2002-03-12 14:57:01 51°19.929 2°47.707 -999 -999 -999  
2002-03-12 14:58:01 51°19.929 2°47.706 -999 -999 -999  
2002-03-12 14:59:01 51°19.928 2°47.708 -999 -999 -999  
2002-03-12 15:00:01 51°19.926 2°47.71 -999 -999 -999  
2002-03-12 15:01:01 51°19.925 2°47.71 -999 -999 -999  
2002-03-12 15:02:01 51°19.922 2°47.709 -999 -999 -999  
2002-03-12 15:03:01 51°19.919 2°47.706 -999 -999 -999  
2002-03-12 15:04:01 51°19.916 2°47.701 -999 -999 -999  
2002-03-12 15:05:01 51°19.913 2°47.696 -999 -999 -999  
2002-03-12 15:06:01 51°19.911 2°47.688 -999 -999 -999  
2002-03-12 15:07:01 51°19.909 2°47.678 -999 -999 -999  
2002-03-12 15:08:01 51°19.907 2°47.668 -999 -999 -999  
2002-03-12 15:09:00 51°19.907 2°47.656 -999 -999 -999  
2002-03-12 15:10:00 51°19.908 2°47.644 -999 -999 -999  
2002-03-12 15:11:01 51°19.91 2°47.632 -999 -999 -999  
2002-03-12 15:12:01 51°19.914 2°47.621 -999 -999 -999  
2002-03-12 15:13:01 51°19.918 2°47.61 -999 -999 -999  
2002-03-12 15:14:00 51°19.922 2°47.6 -999 -999 -999  
2002-03-12 15:15:01 51°19.926 2°47.586 -999 -999 -999  
2002-03-12 15:16:01 51°19.927 2°47.569 -999 -999 -999  
2002-03-12 15:17:00 51°19.926 2°47.551 -999 -999 -999  
2002-03-12 15:18:01 51°19.92 2°47.534 -999 -999 -999  
2002-03-12 15:19:01 51°19.912 2°47.52 -999 -999 -999  
2002-03-12 15:20:00 51°19.9 2°47.515 -999 -999 -999  
2002-03-12 15:21:00 51°19.888 2°47.518 -999 -999 -999  
2002-03-12 15:22:00 51°19.878 2°47.523 -999 -999 -999  
2002-03-12 15:23:00 51°19.869 2°47.529 -999 -999 -999  
2002-03-12 15:24:00 51°19.861 2°47.536 -999 -999 -999  
2002-03-12 15:25:01 51°19.854 2°47.544 -999 -999 -999  
2002-03-12 15:26:00 51°19.849 2°47.553 -999 -999 -999  
2002-03-12 15:27:01 51°19.843 2°47.561 -999 -999 -999  
2002-03-12 15:28:01 51°19.837 2°47.57 -999 -999 -999  
2002-03-12 15:29:01 51°19.832 2°47.58 -999 -999 -999  
2002-03-12 15:30:01 51°19.828 2°47.589 -999 -999 -999  
2002-03-12 15:31:01 51°19.823 2°47.599 -999 -999 -999  
2002-03-12 15:32:01 51°19.819 2°47.608 -999 -999 -999  
2002-03-12 15:33:01 51°19.815 2°47.616 -999 -999 -999  
2002-03-12 15:34:01 51°19.812 2°47.625 -999 -999 -999  
2002-03-12 15:35:01 51°19.809 2°47.634 -999 -999 -999  
2002-03-12 15:36:01 51°19.805 2°47.642 -999 -999 -999  
2002-03-12 15:37:01 51°19.801 2°47.65 -999 -999 -999  
2002-03-12 15:38:01 51°19.794 2°47.667 -999 -999 -999  
2002-03-12 15:39:01 51°19.687 2°47.674 -999 -999 -999  
2002-03-12 15:40:01 51°19.589 2°47.397 -999 -999 -999  
2002-03-12 15:41:01 51°19.497 2°47.063 -999 -999 -999  
2002-03-12 15:42:01 51°19.424 2°46.715 -999 -999 -999  
2002-03-12 15:43:00 51°19.349 2°46.373 -999 -999 -999  
2002-03-12 15:44:01 51°19.289 2°46.013 -999 -999 -999  
2002-03-12 15:45:01 51°19.218 2°45.662 -999 -999 -999  
2002-03-12 15:46:01 51°19.152 2°45.307 -999 -999 -999  
2002-03-12 15:47:01 51°19.083 2°44.953 -999 -999 -999  
2002-03-12 15:48:01 51°19.003 2°44.604 -999 -999 -999  
2002-03-12 15:49:01 51°18.927 2°44.248 -999 -999 -999  
2002-03-12 15:50:00 51°18.894 2°43.917 -999 -999 -999  
2002-03-12 15:51:01 51°18.914 2°43.722 -999 -999 -999  
2002-03-12 15:52:01 51°18.917 2°43.706 -999 -999 -999  
2002-03-12 15:53:01 51°18.916 2°43.695 -999 -999 -999  
2002-03-12 15:54:01 51°18.915 2°43.683 -999 -999 -999  
2002-03-12 15:55:01 51°18.915 2°43.67 -999 -999 -999  
2002-03-12 15:56:01 51°18.916 2°43.655 -999 -999 -999  
2002-03-12 15:57:01 51°18.918 2°43.639 -999 -999 -999  
2002-03-12 15:58:01 51°18.919 2°43.622 -999 -999 -999  
2002-03-12 15:59:01 51°18.922 2°43.605 -999 -999 -999  
2002-03-12 16:00:01 51°18.928 2°43.583 -999 -999 -999  
2002-03-12 16:01:01 51°18.941 2°43.56 -999 -999 -999  
2002-03-12 16:02:01 51°18.92 2°43.555 -999 -999 -999  
2002-03-12 16:03:01 51°18.854 2°43.599 -999 -999 -999  
2002-03-12 16:04:01 51°18.808 2°43.685 -999 -999 -999  
2002-03-12 16:05:02 51°18.794 2°43.793 -999 -999 -999  
2002-03-12 16:06:01 51°18.819 2°43.888 -999 -999 -999  
2002-03-12 16:07:01 51°18.874 2°43.949 -999 -999 -999  
2002-03-12 16:08:01 51°18.902 2°43.956 -999 -999 -999  
2002-03-12 16:09:01 51°18.895 2°43.947 -999 -999 -999  
2002-03-12 16:10:01 51°18.886 2°43.936 -999 -999 -999  
2002-03-12 16:11:01 51°18.876 2°43.924 -999 -999 -999  
2002-03-12 16:12:01 51°18.865 2°43.911 -999 -999 -999  
2002-03-12 16:13:01 51°18.854 2°43.899 -999 -999 -999  
2002-03-12 16:14:01 51°18.842 2°43.886 -999 -999 -999  
2002-03-12 16:15:01 51°18.83 2°43.874 -999 -999 -999  
2002-03-12 16:16:02 51°18.842 2°43.844 -999 -999 -999  
2002-03-12 16:17:01 51°18.886 2°43.805 -999 -999 -999  
2002-03-12 16:18:01 51°18.884 2°43.782 -999 -999 -999  
2002-03-12 16:19:01 51°18.876 2°43.762 -999 -999 -999  
2002-03-12 16:20:01 51°18.863 2°43.744 -999 -999 -999  
2002-03-12 16:21:01 51°18.849 2°43.728 -999 -999 -999  
2002-03-12 16:22:01 51°18.836 2°43.713 -999 -999 -999  
2002-03-12 16:23:01 51°18.822 2°43.699 -999 -999 -999  
2002-03-12 16:24:01 51°18.809 2°43.685 -999 -999 -999  
2002-03-12 16:25:01 51°18.796 2°43.672 -999 -999 -999  
2002-03-12 16:26:01 51°18.784 2°43.659 -999 -999 -999  
2002-03-12 16:27:01 51°18.772 2°43.646 -999 -999 -999  
2002-03-12 16:28:01 51°18.759 2°43.633 -999 -999 -999  
2002-03-12 16:29:01 51°18.748 2°43.62 -999 -999 -999  
2002-03-12 16:30:01 51°18.736 2°43.608 -999 -999 -999  
2002-03-12 16:31:01 51°18.724 2°43.594 -999 -999 -999  
2002-03-12 16:32:01 51°18.711 2°43.581 -999 -999 -999  
2002-03-12 16:33:01 51°18.699 2°43.568 -999 -999 -999  
2002-03-12 16:34:01 51°18.686 2°43.555 -999 -999 -999  
2002-03-12 16:35:01 51°18.579 2°43.653 -999 -999 -999  
2002-03-12 16:36:01 51°18.398 2°43.832 -999 -999 -999  
2002-03-12 16:37:01 51°18.195 2°43.94 -999 -999 -999  
2002-03-12 16:38:01 51°17.981 2°44.015 -999 -999 -999  
2002-03-12 16:39:01 51°17.759 2°44.08 -999 -999 -999  
2002-03-12 16:40:01 51°17.572 2°44.161 -999 -999 -999  
2002-03-12 16:41:01 51°17.53 2°44.25 -999 -999 -999  
2002-03-12 16:42:01 51°17.53 2°44.318 -999 -999 -999  
2002-03-12 16:43:01 51°17.53 2°44.351 -999 -999 -999  
2002-03-12 16:44:01 51°17.525 2°44.357 -999 -999 -999  
2002-03-12 16:45:01 51°17.518 2°44.358 -999 -999 -999  
2002-03-12 16:46:01 51°17.509 2°44.358 -999 -999 -999  
2002-03-12 16:47:01 51°17.498 2°44.357 -999 -999 -999  
2002-03-12 16:48:01 51°17.487 2°44.356 -999 -999 -999  
2002-03-12 16:49:01 51°17.476 2°44.354 -999 -999 -999  
2002-03-12 16:50:01 51°17.464 2°44.352 -999 -999 -999  
2002-03-12 16:51:01 51°17.453 2°44.35 -999 -999 -999  
2002-03-12 16:52:01 51°17.442 2°44.347 -999 -999 -999  
2002-03-12 16:53:01 51°17.43 2°44.345 -999 -999 -999  
2002-03-12 16:54:01 51°17.417 2°44.342 -999 -999 -999  
2002-03-12 16:55:01 51°17.404 2°44.34 -999 -999 -999  
2002-03-12 16:56:01 51°17.389 2°44.337 -999 -999 -999  
2002-03-12 16:57:01 51°17.375 2°44.334 -999 -999 -999  
2002-03-12 16:58:01 51°17.361 2°44.332 -999 -999 -999  
2002-03-12 16:59:01 51°17.345 2°44.328 -999 -999 -999  
2002-03-12 17:00:01 51°17.329 2°44.325 -999 -999 -999  
2002-03-12 17:01:02 51°17.328 2°44.275 -999 -999 -999  
2002-03-12 17:02:01 51°17.375 2°44.167 -999 -999 -999  
2002-03-12 17:03:02 51°17.453 2°44.142 -999 -999 -999  
2002-03-12 17:04:02 51°17.502 2°44.22 -999 -999 -999  
2002-03-12 17:05:01 51°17.517 2°44.336 -999 -999 -999  
2002-03-12 17:06:01 51°17.518 2°44.355 -999 -999 -999  
2002-03-12 17:07:01 51°17.511 2°44.318 -999 -999 -999  
2002-03-12 17:08:01 51°17.505 2°44.28 -999 -999 -999  
2002-03-12 17:09:01 51°17.498 2°44.241 -999 -999 -999  
2002-03-12 17:10:01 51°17.492 2°44.202 -999 -999 -999  
2002-03-12 17:11:01 51°17.486 2°44.16 -999 -999 -999  
2002-03-12 17:12:01 51°17.482 2°44.118 -999 -999 -999  
2002-03-12 17:13:01 51°17.478 2°44.076 -999 -999 -999  
2002-03-12 17:14:01 51°17.476 2°44.035 -999 -999 -999  
2002-03-12 17:15:01 51°17.473 2°43.994 -999 -999 -999  
2002-03-12 17:16:01 51°17.471 2°43.953 -999 -999 -999  
2002-03-12 17:17:01 51°17.469 2°43.911 -999 -999 -999  
2002-03-12 17:18:01 51°17.479 2°43.802 -999 -999 -999  
2002-03-12 17:19:01 51°17.387 2°43.755 -999 -999 -999  
2002-03-12 17:20:01 51°17.24 2°43.952 -999 -999 -999  
2002-03-12 17:21:01 51°17.111 2°44.225 -999 -999 -999  
2002-03-12 17:22:01 51°16.973 2°44.493 -999 -999 -999  
2002-03-12 17:23:01 51°16.829 2°44.753 -999 -999 -999  
2002-03-12 17:24:01 51°16.66 2°44.973 -999 -999 -999  
2002-03-12 17:25:01 51°16.521 2°45.234 -999 -999 -999  
2002-03-12 17:26:01 51°16.415 2°45.529 -999 -999 -999  
2002-03-12 17:27:01 51°16.334 2°45.842 -999 -999 -999  
2002-03-12 17:28:01 51°16.253 2°46.155 -999 -999 -999  
2002-03-12 17:29:01 51°16.186 2°46.478 -999 -999 -999  
2002-03-12 17:30:01 51°16.103 2°46.796 -999 -999 -999  
2002-03-12 17:31:01 51°15.987 2°47.078 -999 -999 -999  
2002-03-12 17:32:01 51°15.885 2°47.366 -999 -999 -999  
2002-03-12 17:33:01 51°15.79 2°47.659 -999 -999 -999  
2002-03-12 17:34:01 51°15.69 2°47.949 -999 -999 -999  
2002-03-12 17:35:01 51°15.606 2°48.251 -999 -999 -999  
2002-03-12 17:36:01 51°15.511 2°48.545 -999 -999 -999  
2002-03-12 17:37:01 51°15.394 2°48.828 -999 -999 -999  
2002-03-12 17:38:01 51°15.313 2°49.137 -999 -999 -999  
2002-03-12 17:39:01 51°15.259 2°49.458 -999 -999 -999  
2002-03-12 17:40:01 51°15.208 2°49.779 -999 -999 -999  
2002-03-12 17:41:01 51°15.154 2°50.098 -999 -999 -999  
2002-03-12 17:42:01 51°15.109 2°50.42 -999 -999 -999  
2002-03-12 17:43:01 51°15.061 2°50.743 -999 -999 -999  
2002-03-12 17:44:01 51°15.013 2°51.067 -999 -999 -999  
2002-03-12 17:45:01 51°14.97 2°51.392 -999 -999 -999  
2002-03-12 17:46:01 51°14.912 2°51.715 -999 -999 -999  
2002-03-12 17:47:01 51°14.859 2°52.04 -999 -999 -999  
2002-03-12 17:48:01 51°14.81 2°52.367 -999 -999 -999  
2002-03-12 17:49:01 51°14.75 2°52.689 -999 -999 -999  
2002-03-12 17:50:01 51°14.69 2°53.013 -999 -999 -999  
2002-03-12 17:51:01 51°14.631 2°53.334 -999 -999 -999  
2002-03-12 17:52:01 51°14.574 2°53.658 -999 -999 -999  
2002-03-12 17:53:01 51°14.525 2°53.991 -999 -999 -999  
2002-03-12 17:54:01 51°14.475 2°54.318 -999 -999 -999  
2002-03-12 17:55:01 51°14.43 2°54.637 -999 -999 -999  
2002-03-12 17:56:01 51°14.386 2°54.924 -999 -999 -999  
2002-03-12 17:57:01 51°14.299 2°55.176 -999 -999 -999  
2002-03-12 17:58:01 51°14.18 2°55.364 -999 -999 -999  
2002-03-12 17:59:01 51°14.07 2°55.448 -999 -999 -999  
2002-03-12 18:00:01 51°13.968 2°55.52 -999 -999 -999  
2002-03-12 18:01:00 51°13.862 2°55.597 -999 -999 -999  
2002-03-12 18:02:01 51°13.781 2°55.671 -999 -999 -999  
2002-03-12 18:02:59 51°13.742 2°55.736 -999 -999 -999  
2002-03-12 18:04:01 51°13.717 2°55.793 -999 -999 -999  
2002-03-12 18:05:01 51°13.702 2°55.841 -999 -999 -999  
2002-03-12 18:06:01 51°13.695 2°55.885 -999 -999 -999  
2002-03-12 18:07:00 51°13.689 2°55.901 -999 -999 -999  
2002-03-12 18:08:04 51°13.689 2°55.905 -999 -999 -999  
2002-03-12 18:09:05 51°13.689 2°55.905 -999 -999 -999  
2002-03-12 18:10:05 51°13.689 2°55.905 -999 -999 -999